Weather History for LDSP - January, 2013

Change the Weather History Date:

Thursday, January 3, 2013

  Actual Average Record
Temperature  
Mean Temperature 50 °F -  
Max Temperature 58 °F - - ()
Min Temperature 42 °F - - ()
Degree Days  
Heating Degree Days 15    
Moisture  
Dew Point 41 °F    
Average Humidity 71    
Maximum Humidity 87    
Minimum Humidity 42    
Precipitation  
Precipitation 0.00 in - - ()
Sea Level Pressure  
Sea Level Pressure 30.47 in    
Wind  
Wind Speed 4 mph ()    
Max Wind Speed 12 mph    
Max Gust Speed 24 mph    
Visibility 14.5 miles    
Events      
T = Trace of Precipitation, MM = Missing Value Source: Averaged Metar Reports

Daily Weather History Graph

Daily Weather History Graph

Search for Another Location

Airport or City:

Trip Planner

Search our weather history database for the weather conditions in past years. The results will help you decide how hot, cold, wet, or windy it might be!

Date:

Astronomy

Jan. 03, 2013 Rise Set
Actual Time 7:28 AM CET 4:30 PM CET
Civil Twilight 6:55 AM CET 5:03 PM CET
Nautical Twilight 6:19 AM CET 5:39 PM CET
Astronomical Twilight 5:44 AM CET 6:14 PM CET
Moon 11:00 PM CET (1/3) 10:19 AM CET (1/3)
Length of Visible Light 10h 07m
Length of Day
9h 02m
Waning Gibbous, 68% of the Moon is Illuminated
Jan 3
Waning Gibbous
Jan 5
Last Quarter
Jan 11
New
Jan 19
First Quarter
Jan 27
Full

Hourly Weather History & Observations

Time (CET) Temp. Windchill Dew Point Humidity Pressure Visibility Wind Dir Wind Speed Gust Speed Precip Events Conditions
12:00 AM 46.4 °F 42.4 °F 42.8 °F 87% 30.36 in - NNW 8.1 mph - N/A   Clear
12:30 AM 46.4 °F 44.3 °F 42.8 °F 87% 30.36 in - NW 4.6 mph - N/A   Clear
1:00 AM 47 °F - 43 °F 81% 30.39 in 9 mi ENE 2.2 mph - -   Mostly Cloudy
1:00 AM 48.2 °F - 42.8 °F 82% 30.39 in - Variable 2.3 mph - N/A   Clear
1:30 AM 46.4 °F - 42.8 °F 87% 30.39 in - Variable 2.3 mph - N/A   Clear
2:00 AM 46.4 °F - 42.8 °F 87% 30.39 in - Variable 1.2 mph - N/A   Clear
2:30 AM 44.6 °F 42.2 °F 41.0 °F 87% 30.39 in - NNW 4.6 mph - N/A   Clear
3:00 AM 44.6 °F - 41.0 °F 87% 30.42 in - Variable 2.3 mph - N/A   Clear
3:30 AM 46.4 °F - 41.0 °F 81% 30.42 in - Variable 2.3 mph - N/A   Clear
4:00 AM 45 °F - 40 °F 75% 30.44 in 9 mi Calm Calm - -   Scattered Clouds
4:00 AM 44.6 °F - 39.2 °F 81% 30.42 in - Variable 1.2 mph - N/A   Clear
4:30 AM 44.6 °F - 39.2 °F 81% 30.42 in - Variable 2.3 mph - N/A   Clear
5:00 AM 44.6 °F - 39.2 °F 81% 30.42 in - Variable 2.3 mph - N/A   Clear
5:30 AM 44.6 °F - 39.2 °F 81% 30.45 in - Variable 2.3 mph - N/A   Clear
6:00 AM 44.6 °F 42.2 °F 39.2 °F 81% 30.45 in - NW 4.6 mph - N/A   Clear
6:30 AM 44.6 °F 42.2 °F 39.2 °F 81% 30.45 in - NW 4.6 mph - N/A   Clear
7:00 AM 46 °F - 39 °F 70% 30.48 in 12 mi NNW 4.5 mph - -   Mostly Cloudy
7:00 AM 46.4 °F 44.3 °F 39.2 °F 76% 30.48 in - NNW 4.6 mph - N/A   Clear
7:30 AM 46.4 °F 42.9 °F 39.2 °F 76% 30.48 in - NNW 6.9 mph - N/A   Clear
8:00 AM - - - N/A% 0.00 in - North - - N/A   Unknown
8:30 AM 48.2 °F - 41.0 °F 76% 30.51 in - Variable 2.3 mph - N/A   Clear
9:00 AM 48.2 °F - 41.0 °F 76% 30.51 in - Variable 2.3 mph - N/A   Clear
9:30 AM 50.0 °F - 42.8 °F 76% 30.51 in - Variable 1.2 mph - N/A   Clear
10:00 AM 49 °F - 43 °F 74% 30.53 in 19 mi NE 2.2 mph - -   Mostly Cloudy
10:00 AM 50.0 °F - 42.8 °F 76% 30.51 in - Variable 2.3 mph - N/A   Clear
10:30 AM 50.0 °F - 44.6 °F 82% 30.51 in - Variable 2.3 mph - N/A   Clear
11:00 AM 51.8 °F - 42.8 °F 71% 30.51 in - Variable 2.3 mph - N/A   Clear
12:00 PM 57.2 °F - 42.8 °F 59% 30.51 in - Variable 1.2 mph - N/A   Clear
12:30 PM 59.0 °F - 41.0 °F 51% 30.48 in - Variable 1.2 mph - N/A   Clear
1:00 PM 58 °F - 41 °F 42% 30.50 in 25 mi ESE 2.2 mph - -   Clear
1:00 PM 57.2 °F - 41.0 °F 55% 30.48 in - Variable 3.5 mph - N/A   Clear
1:30 PM 59.0 °F - 41.0 °F 51% 30.48 in - Variable 2.3 mph - N/A   Clear
2:00 PM 57.2 °F - 39.2 °F 51% 30.48 in - Variable 2.3 mph - N/A   Clear
2:30 PM 59.0 °F - 42.8 °F 55% 30.48 in - WSW 6.9 mph - N/A   Clear
3:00 PM 57.2 °F - 42.8 °F 59% 30.48 in - WSW 5.8 mph - N/A   Clear
3:30 PM 55.4 °F - 42.8 °F 63% 30.48 in - WSW 5.8 mph - N/A   Clear
4:00 PM 55 °F - 42 °F 51% 30.49 in 25 mi WSW 4.5 mph - -   Clear
4:00 PM 55.4 °F - 42.8 °F 63% 30.48 in - WSW 4.6 mph - N/A   Clear
4:30 PM 53.6 °F - 41.0 °F 62% 30.48 in - West 5.8 mph - N/A   Clear
5:00 PM 53.6 °F - 41.0 °F 62% 30.48 in - WSW 4.6 mph - N/A   Clear
5:30 PM 51.8 °F - 41.0 °F 67% 30.48 in - WNW 9.2 mph - N/A   Clear
6:00 PM 50.0 °F - 41.0 °F 71% 30.48 in - Variable 3.5 mph - N/A   Clear
6:30 PM 51.8 °F - 41.0 °F 67% 30.48 in - WNW 9.2 mph - N/A   Clear
7:00 PM 51 °F - 41 °F 58% 30.51 in 19 mi NW 8.9 mph - -  
7:00 PM 50.0 °F - 41.0 °F 71% 30.48 in - NW 8.1 mph - N/A   Clear
7:30 PM 50.0 °F - 39.2 °F 66% 30.48 in - NW 5.8 mph - N/A   Clear
8:00 PM 50.0 °F - 41.0 °F 71% 30.48 in - WNW 4.6 mph - N/A   Clear
8:30 PM 50.0 °F - 41.0 °F 71% 30.48 in - West 6.9 mph 24.2 mph N/A   Clear
9:00 PM 48.2 °F - 41.0 °F 76% 30.48 in - West 8.1 mph - N/A   Clear
9:30 PM 48.2 °F - 41.0 °F 76% 30.48 in - WNW 5.8 mph - N/A   Clear
10:00 PM 49 °F - 41 °F 64% 30.50 in 19 mi WNW 6.7 mph - -  
10:00 PM 48.2 °F - 41.0 °F 76% 30.48 in - WNW 6.9 mph - N/A   Clear
10:30 PM 50.0 °F - 41.0 °F 71% 30.48 in - West 11.5 mph - N/A   Clear
11:00 PM 50.0 °F - 42.8 °F 76% 30.45 in - West 5.8 mph - N/A   Clear
11:30 PM 50.0 °F - 42.8 °F 76% 30.48 in - Variable 1.2 mph - N/A   Clear